カタログに戻る

STARLINK-30510

運用中通信VLEO
NORAD 57981·PAYLOAD·🇺🇸 United States

打ち上げ Sep 30, 2023 から Cape Canaveral Space Force Station

Loading…

次のパス (今後24時間)

TLE

最新Source: CelesTrak SupGP

元期: Sep 15, 2026, 02:25 UTC

1 57981C 23151T   26258.10118056 -.00055652  00000+0 -20160-2 0  2580
2 57981  43.0039   4.2200 0001928 259.7285  92.0138 15.27601111    16

AllMySatでSTARLINK-30510をリアルタイム追跡

Download on the App Store